P/2017 S5 ( ATLAS )

Japanese version
Home page
Updated on May 21, 2018

---------------------------------------------------------------------

* Profile

Discovery Date September 27, 2017
Magnitude 18.2 mag
Discoverer Asteroid Terrestrial-impact Last Alert System (ATLAS) search program

* Pictures

* Orbital Elements

Epoch 2017 July 26.0 TT = JDT 2457960.5
T 2017 July 27.96569 TT                                 MPCW
q   2.1781413            (2000.0)            P               Q
n   0.17455881     Peri.   99.91978     +0.97101029     +0.13724024
a   3.1708439      Node   252.39436     -0.19733618     +0.92229133
e   0.3130721      Incl.   11.84893     +0.13489792     +0.36130848
P   5.65
From 402 observations 2017 Sept. 1-2018 Jan. 18, mean residual 0".4.

* Magnitudes Graph

        m1 = 13.5 + 5 log d + 10.0 log r

---------------------------------------------------------------------

The orbital elements are published on M.P.E.C. 2018-B155.
The magnitudes graphs are made with Comet for Windows.

---------------------------------------------------------------------

Copyright(C) Seiichi Yoshida (comet@aerith.net). All rights reserved.